#timestamp,LO_Frequency,Hit,StdDev 
1518264015.7,286047001.9,N
1518264035.5,286047002.4,Y
1518264055.3,286047001.0,P
1518264075.2,286047000.9,N
1518264095.0,286047000.9,N
1518264095.9,286047000.9,N
1518264115.8,286046998.5,Y
1518264135.6,286047001.1,P
1518264155.4,286046998.3,P
1518264175.2,286047000.7,N
1518264195.1,286047001.0,N
1518264196.0,286047001.0,N
1518264215.8,286046998.1,N
1518264235.6,286046998.1,N
1518264255.5,286047001.1,N
1518264275.3,286047001.1,N
1518264295.1,286047001.1,N
1518264315.9,286047001.2,N
1518264335.7,286046998.2,N
1518264355.5,286046998.1,N
1518264375.4,286046998.1,N
1518264395.2,286047000.9,N
1518264415.0,286047001.1,N
1518264415.9,286047001.1,N
1518264435.8,286047001.2,N
1518264455.6,286047000.8,N
1518264475.4,286047000.8,N
1518264495.2,286047000.8,N
1518264515.1,286047001.1,N
1518264516.0,286047001.1,N
1518264535.8,286047000.8,N
1518264555.6,286047001.1,N
1518264575.5,286047001.1,N
1518264595.3,286047000.7,N
1518264615.1,286047001.0,N
1518264635.9,286047000.3,N
1518264655.7,286047001.0,N
1518264675.5,286047000.6,N
1518264695.4,286047000.5,N
1518264715.2,286047000.1,N
1518264735.0,286047000.1,N
1518264735.9,286047000.1,N
1518264755.8,286047000.5,N
1518264775.6,286047000.6,N
1518264795.4,286047000.5,N
1518264815.2,286047000.3,N
1518264835.1,286047000.0,N
1518264836.0,286047000.0,N
1518264855.8,286047000.2,N
1518264875.6,286047000.1,N
1518264895.5,286047000.1,N
1518264915.3,286046999.8,N
1518264935.1,286046999.7,N
1518264955.9,286047002.0,Y
1518264975.7,286047004.4,P
1518264995.5,286047001.7,N
1518265015.4,286046999.8,N
1518265035.2,286046999.7,N
1518265055.0,286047002.8,N
1518265055.9,286047002.8,N
1518265075.8,286047001.9,N
1518265095.6,286047001.6,N
1518265115.4,286047001.7,N
1518265135.3,286047004.4,Y
1518265155.1,286047000.0,P
1518265156.0,286047000.0,N
1518265175.8,286047001.9,N
1518265195.7,286047001.6,N
1518265215.5,286047001.8,N
1518265235.3,286047001.9,N
1518265255.2,286047001.5,N
1518265275.9,286047004.4,Y
1518265295.7,286047002.7,P
1518265315.6,286047001.9,N
1518265335.4,286047002.2,P
1518265355.2,286047001.4,N
1518265375.1,286047001.9,Y
1518265376.0,286047001.9,P
1518265395.8,286046999.8,P
1518265415.6,286047000.3,N
1518265435.5,286046999.9,N
1518265455.3,286046999.8,N
1518265475.1,286047002.2,N
1518265495.9,286047002.8,N
1518265515.7,286047002.7,N
1518265535.5,286047001.4,N
1518265555.3,286047002.0,N
1518265575.2,286047002.1,N
1518265595.0,286047002.1,N
1518265595.9,286047002.1,N
1518265615.7,286047002.2,N
1518265635.6,286047001.7,N
1518265655.4,286047001.8,N
1518265675.2,286047001.8,N
1518265695.1,286047001.8,N
1518265696.0,286047001.8,N
1518265715.8,286047002.5,N
1518265735.6,286047001.5,N
1518265755.5,286047000.4,N
1518265775.3,286047000.2,N
1518265795.1,286047002.7,N
1518265815.9,286047000.3,N
1518265835.7,286046999.8,N
1518265855.5,286047000.1,N
1518265875.3,286047000.5,N
1518265895.2,286046999.8,N
1518265915.0,286046999.8,N
1518265915.9,286046999.8,N
1518265935.7,286047000.2,N
1518265955.6,286047000.6,N
1518265975.4,286047001.0,N
1518265995.2,286047000.7,N
1518266015.1,286047000.8,N
1518266016.0,286047000.8,N
1518266035.8,286047001.2,N
1518266055.6,286046998.4,N
1518266075.5,286047001.2,N
1518266095.3,286047000.9,N
1518266115.1,286046998.2,N
1518266135.9,286046998.6,N
1518266155.7,286046998.3,N
1518266175.5,286046998.7,N
1518266195.4,286046998.2,N
1518266215.2,286046998.8,N
1518266235.0,286046998.8,N
1518266235.9,286046998.8,N
1518266255.8,286046999.0,N
1518266275.6,286046998.5,N
1518266295.4,286046998.5,N
1518266315.2,286046998.5,N
1518266335.1,286046998.9,N
1518266336.0,286046998.9,N
1518266355.8,286046998.9,N
1518266375.6,286046998.9,N
1518266395.5,286046998.8,N
1518266415.3,286046998.9,N
1518266435.1,286046999.3,N
1518266455.9,286046998.4,N
1518266475.7,286046999.1,N
1518266495.5,286046998.7,N
1518266515.4,286046999.1,N
1518266535.2,286046999.1,N
1518266555.0,286046998.3,N
1518266555.9,286046998.3,N
1518266575.8,286046998.7,N
1518266595.6,286046999.2,N
1518266615.4,286046999.0,N
1518266635.3,286046996.5,Y
1518266655.1,286046998.4,P
1518266656.0,286046998.4,P
1518266675.8,286046998.3,P
1518266695.7,286046998.6,Y
1518266715.5,286047000.0,P
1518266735.3,286046999.9,N
1518266755.2,286046999.9,N
1518266775.9,286047000.0,N
1518266795.7,286046999.9,N
1518266815.6,286047000.2,N
1518266835.4,286047000.1,N
1518266855.2,286047000.2,N
1518266875.0,286047000.2,N
1518266875.9,286047000.2,N
1518266895.8,286047000.2,N
1518266915.6,286047000.1,N
1518266935.4,286047002.3,Y
1518266955.3,286046999.7,P
1518266975.1,286046999.8,N
1518266995.8,286046999.8,N
1518267015.7,286046999.8,N
1518267035.5,286047002.4,Y
1518267055.3,286047002.3,P
1518267075.2,286047000.1,N
1518267095.0,286047000.1,N
1518267095.9,286047000.1,N
1518267115.7,286047002.4,N
1518267135.6,286046999.9,N
1518267155.4,286047000.2,N
1518267175.2,286046999.9,N
1518267195.1,286046999.9,N
1518267196.0,286046999.9,N
1518267215.8,286047000.2,N
1518267235.6,286046999.9,N
1518267255.5,286047000.3,N
1518267275.3,286047000.3,N
1518267295.1,286047000.4,N
1518267315.8,286047000.5,N
1518267335.7,286047000.5,N
1518267355.5,286047000.4,N
1518267375.3,286047000.1,N
1518267395.2,286047000.4,N
1518267415.0,286047000.4,N
1518267415.9,286047000.4,N
1518267435.7,286046999.8,N
1518267455.6,286047000.1,N
1518267475.4,286047000.2,N
1518267495.2,286047002.6,Y
1518267515.1,286046999.9,P
1518267516.0,286046999.9,N
1518267535.8,286047000.3,N
1518267555.6,286047000.3,N
1518267575.5,286047000.3,N
1518267595.3,286047000.0,N
